QPF
0.05 0.09 0.18 0.19 0.12 0.08 0.07 0.06 0.07 0.08 0.05 0.03 0.04 0.06 0.07 0.06 0.06 0.05 0.07 0.08 0.09 0.12 0.13 0.12 0.09 0.07 0.07 0.05 0.06 0.07 0.06 0.06 0.11 0.15 0.18 0.18 0.18 0.23 0.20 0.15 0.11 0.08 0.07
0.05 0.06 0.12 0.11 0.09 0.08 0.07 0.06 0.07 0.08 0.07 0.06 0.05 0.06 0.06 0.04 0.04 0.03 0.04 0.06 0.07 0.09 0.10 0.13 0.12 0.09 0.08 0.08 0.08 0.08 0.07 0.05 0.07 0.12 0.15 0.14 0.14 0.17 0.18 0.14 0.10 0.07 0.07
0.04 0.05 0.08 0.08 0.07 0.07 0.08 0.08 0.07 0.07 0.08 0.08 0.06 0.05 0.04 0.04 0.04 0.03 0.05 0.07 0.08 0.10 0.10 0.10 0.14 0.13 0.12 0.11 0.09 0.07 0.06 0.05 0.04 0.07 0.07 0.06 0.06 0.09 0.11 0.11 0.09 0.07 0.06
0.03 0.04 0.05 0.08 0.05 0.04 0.06 0.08 0.07 0.07 0.08 0.06 0.04 0.04 0.04 0.05 0.05 0.05 0.06 0.07 0.10 0.14 0.13 0.10 0.12 0.13 0.12 0.09 0.08 0.06 0.04 0.03 0.02 0.02 0.02 0.02 0.02 0.05 0.05 0.05 0.04 0.04 0.04
0.03 0.03 0.05 0.07 0.05 0.04 0.03 0.05 0.07 0.06 0.07 0.06 0.05 0.04 0.03 0.04 0.05 0.06 0.07 0.08 0.15 0.22 0.18 0.14 0.14 0.12 0.10 0.07 0.07 0.05 0.04 0.02 0.01 0.01 0.00 0.01 0.01 0.03 0.02 0.02 0.02 0.02 0.02
0.03 0.03 0.04 0.04 0.04 0.03 0.04 0.04 0.04 0.05 0.06 0.07 0.07 0.04 0.03 0.03 0.05 0.06 0.07 0.08 0.16 0.20 0.20 0.14 0.13 0.12 0.09 0.07 0.07 0.05 0.03 0.02 0.01 0.00 0.00 0.00 0.00 0.02 0.02 0.02 0.01 0.02 0.02
0.04 0.04 0.04 0.04 0.03 0.02 0.02 0.03 0.02 0.03 0.07 0.08 0.05 0.03 0.03 0.03 0.04 0.04 0.04 0.05 0.10 0.13 0.19 0.12 0.12 0.12 0.10 0.09 0.08 0.05 0.03 0.02 0.01 0.01 0.00 0.00 0.01 0.02 0.03 0.03 0.02 0.02 0.02
0.07 0.06 0.05 0.04 0.04 0.07 0.09 0.07 0.04 0.03 0.07 0.07 0.05 0.03 0.03 0.04 0.04 0.05 0.03 0.03 0.03 0.06 0.09 0.08 0.08 0.08 0.09 0.10 0.08 0.06 0.05 0.02 0.01 0.01 0.01 0.01 0.03 0.04 0.04 0.04 0.04 0.03 0.03
0.09 0.06 0.03 0.04 0.11 0.19 0.18 0.15 0.09 0.06 0.05 0.04 0.03 0.03 0.02 0.02 0.04 0.04 0.03 0.03 0.03 0.03 0.03 0.04 0.05 0.06 0.08 0.10 0.10 0.07 0.04 0.02 0.02 0.02 0.02 0.02 0.04 0.03 0.03 0.03 0.03 0.04 0.04
0.06 0.05 0.03 0.05 0.17 0.24 0.17 0.20 0.14 0.06 0.05 0.04 0.04 0.03 0.02 0.01 0.03 0.04 0.03 0.03 0.03 0.03 0.02 0.02 0.02 0.03 0.07 0.11 0.10 0.08 0.07 0.05 0.03 0.03 0.03 0.04 0.04 0.03 0.03 0.03 0.02 0.02 0.04
0.05 0.05 0.04 0.06 0.19 0.25 0.14 0.20 0.14 0.05 0.03 0.04 0.04 0.02 0.01 0.01 0.01 0.02 0.04 0.03 0.03 0.03 0.02 0.02 0.02 0.02 0.03 0.05 0.06 0.08 0.06 0.05 0.04 0.04 0.04 0.06 0.06 0.04 0.04 0.09 0.11 0.06 0.05
0.04 0.04 0.05 0.06 0.15 0.21 0.14 0.15 0.10 0.04 0.02 0.02 0.02 0.01 0.01 0.01 0.02 0.03 0.05 0.06 0.04 0.02 0.02 0.02 0.02 0.02 0.02 0.02 0.02 0.02 0.01 0.01 0.01 0.02 0.04 0.06 0.09 0.06 0.04 0.09 0.28 0.32 0.13
0.02 0.03 0.03 0.04 0.06 0.12 0.13 0.11 0.07 0.03 0.01 0.01 0.01 0.00 0.00 0.01 0.01 0.02 0.07 0.09 0.07 0.03 0.02 0.01 0.01 0.01 0.01 0.01 0.01 0.02 0.01 0.01 0.01 0.01 0.03 0.04 0.05 0.04 0.04 0.07 0.20 0.37 0.21
0.01 0.02 0.02 0.03 0.02 0.03 0.05 0.05 0.03 0.01 0.00 0.01 0.01 0.00 0.00 0.00 0.01 0.01 0.03 0.05 0.06 0.05 0.03 0.02 0.02 0.02 0.02 0.03 0.04 0.03 0.02 0.02 0.01 0.01 0.03 0.05 0.07 0.06 0.06 0.05 0.09 0.18 0.17
0.01 0.02 0.02 0.02 0.01 0.01 0.01 0.01 0.01 0.00 0.00 0.00 0.00 0.00 0.00 0.00 0.00 0.01 0.02 0.04 0.04 0.05 0.05 0.04 0.04 0.05 0.04 0.03 0.04 0.04 0.04 0.02 0.02 0.02 0.02 0.03 0.06 0.08 0.06 0.05 0.06 0.07 0.09
0.02 0.02 0.03 0.03 0.01 0.01 0.00 0.00 0.00 0.00 0.00 0.00 0.00 0.00 0.00 0.00 0.00 0.01 0.02 0.02 0.03 0.03 0.03 0.02 0.02 0.02 0.02 0.02 0.02 0.04 0.04 0.03 0.03 0.03 0.02 0.02 0.05 0.06 0.05 0.03 0.04 0.04 0.03
0.03 0.03 0.04 0.04 0.03 0.02 0.02 0.01 0.00 0.00 0.00 0.00 0.00 0.00 0.00 0.00 0.00 0.00 0.01 0.02 0.02 0.02 0.02 0.01 0.01 0.01 0.01 0.01 0.02 0.01 0.02 0.03 0.03 0.05 0.05 0.03 0.03 0.04 0.03 0.04 0.05 0.05 0.04
0.04 0.06 0.07 0.06 0.04 0.02 0.01 0.01 0.01 0.00 0.00 0.00 0.00 0.00 0.00 0.00 0.00 0.00 0.00 0.01 0.01 0.01 0.01 0.01 0.01 0.01 0.01 0.02 0.02 0.01 0.01 0.02 0.02 0.04 0.04 0.04 0.03 0.02 0.03 0.03 0.04 0.04 0.03
0.05 0.07 0.07 0.05 0.03 0.02 0.01 0.01 0.00 0.01 0.00 0.00 0.00 0.00 0.00 0.00 0.00 0.00 0.01 0.01 0.01 0.01 0.02 0.02 0.01 0.01 0.01 0.01 0.01 0.01 0.01 0.01 0.01 0.02 0.04 0.04 0.04 0.03 0.02 0.02 0.03 0.03 0.03
0.05 0.07 0.06 0.05 0.05 0.02 0.01 0.00 0.00 0.00 0.00 0.00 0.00 0.00 0.00 0.00 0.00 0.00 0.01 0.01 0.01 0.01 0.01 0.02 0.02 0.02 0.02 0.01 0.00 0.00 0.00 0.01 0.01 0.02 0.02 0.03 0.06 0.05 0.03 0.01 0.01 0.01 0.03
0.05 0.04 0.05 0.05 0.05 0.04 0.01 0.01 0.00 0.00 0.00 0.00 0.00 0.00 0.00 0.00 0.00 0.00 0.00 0.01 0.01 0.01 0.01 0.02 0.02 0.03 0.03 0.02 0.01 0.01 0.01 0.01 0.02 0.02 0.02 0.02 0.04 0.04 0.02 0.01 0.01 0.01 0.02
0.05 0.04 0.05 0.06 0.05 0.04 0.03 0.02 0.01 0.01 0.00 0.00 0.00 0.00 0.00 0.00 0.00 0.00 0.00 0.01 0.01 0.02 0.01 0.01 0.01 0.02 0.02 0.01 0.01 0.01 0.01 0.02 0.02 0.02 0.02 0.02 0.02 0.02 0.01 0.01 0.02 0.02 0.01
0.03 0.03 0.04 0.06 0.04 0.05 0.06 0.05 0.02 0.01 0.01 0.01 0.00 0.00 0.00 0.00 0.00 0.00 0.01 0.01 0.01 0.02 0.02 0.01 0.01 0.02 0.01 0.01 0.00 0.00 0.01 0.01 0.01 0.02 0.02 0.02 0.02 0.02 0.02 0.02 0.02 0.02 0.02
0.04 0.03 0.03 0.06 0.05 0.05 0.07 0.06 0.03 0.02 0.01 0.01 0.01 0.01 0.00 0.00 0.00 0.01 0.01 0.01 0.01 0.01 0.02 0.01 0.01 0.02 0.02 0.01 0.01 0.01 0.01 0.01 0.01 0.02 0.02 0.02 0.02 0.02 0.02 0.02 0.01 0.01 0.03
0.03 0.04 0.04 0.05 0.05 0.06 0.08 0.07 0.04 0.03 0.03 0.03 0.02 0.01 0.01 0.01 0.01 0.01 0.01 0.02 0.01 0.01 0.01 0.01 0.01 0.01 0.02 0.01 0.01 0.01 0.02 0.02 0.03 0.03 0.02 0.02 0.02 0.02 0.01 0.01 0.01 0.02 0.02
0.02 0.03 0.04 0.04 0.04 0.06 0.09 0.08 0.06 0.04 0.03 0.03 0.04 0.03 0.03 0.03 0.02 0.02 0.01 0.01 0.01 0.01 0.02 0.02 0.02 0.02 0.02 0.02 0.01 0.02 0.02 0.03 0.04 0.03 0.02 0.02 0.02 0.02 0.02 0.02 0.02 0.02 0.02
MSLP
1016.78 1015.74 1014.66 1013.68 1012.89 1012.33 1011.97 1011.74 1011.56 1011.34 1011.02 1010.59 1010.09 1009.56 1009.08 1008.68 1008.37 1008.14 1007.93 1007.67 1007.32 1006.85 1006.27 1005.59 1004.87 1004.13 1003.39 1002.66 1001.90 1001.12 1000.30 999.48 998.70 998.05 997.61 997.44 997.59 998.06 998.80 999.75 1000.82 1001.90 1002.91
1017.36 1016.31 1015.24 1014.28 1013.52 1012.97 1012.62 1012.38 1012.18 1011.92 1011.57 1011.12 1010.62 1010.12 1009.69 1009.36 1009.12 1008.94 1008.76 1008.51 1008.15 1007.67 1007.08 1006.42 1005.73 1005.05 1004.39 1003.75 1003.10 1002.41 1001.67 1000.90 1000.16 999.50 999.01 998.76 998.79 999.11 999.70 1000.48 1001.38 1002.32 1003.23
1017.72 1016.70 1015.68 1014.77 1014.06 1013.56 1013.23 1013.00 1012.78 1012.49 1012.12 1011.66 1011.17 1010.70 1010.32 1010.04 1009.84 1009.69 1009.51 1009.26 1008.89 1008.40 1007.81 1007.17 1006.54 1005.93 1005.37 1004.85 1004.31 1003.75 1003.13 1002.46 1001.78 1001.15 1000.66 1000.36 1000.30 1000.50 1000.92 1001.52 1002.24 1003.01 1003.77
1017.90 1016.94 1015.99 1015.17 1014.53 1014.10 1013.81 1013.59 1013.36 1013.06 1012.66 1012.20 1011.72 1011.28 1010.92 1010.66 1010.48 1010.34 1010.15 1009.88 1009.50 1009.01 1008.44 1007.84 1007.28 1006.76 1006.32 1005.91 1005.51 1005.07 1004.57 1004.02 1003.43 1002.88 1002.42 1002.11 1001.99 1002.08 1002.36 1002.79 1003.32 1003.91 1004.49
1017.98 1017.09 1016.23 1015.51 1014.96 1014.59 1014.35 1014.14 1013.91 1013.60 1013.19 1012.73 1012.25 1011.83 1011.49 1011.24 1011.06 1010.90 1010.70 1010.41 1010.02 1009.53 1009.00 1008.46 1007.97 1007.56 1007.22 1006.93 1006.64 1006.32 1005.94 1005.49 1005.01 1004.54 1004.13 1003.84 1003.70 1003.71 1003.88 1004.16 1004.52 1004.93 1005.34
1018.05 1017.24 1016.48 1015.85 1015.38 1015.08 1014.86 1014.67 1014.44 1014.12 1013.71 1013.24 1012.78 1012.37 1012.03 1011.79 1011.59 1011.42 1011.19 1010.89 1010.50 1010.04 1009.55 1009.08 1008.67 1008.34 1008.10 1007.90 1007.70 1007.46 1007.17 1006.81 1006.42 1006.02 1005.67 1005.42 1005.28 1005.26 1005.34 1005.50 1005.72 1005.97 1006.23
1018.19 1017.45 1016.77 1016.22 1015.83 1015.57 1015.38 1015.19 1014.95 1014.62 1014.22 1013.76 1013.31 1012.92 1012.60 1012.35 1012.15 1011.95 1011.70 1011.39 1011.01 1010.58 1010.14 1009.74 1009.40 1009.15 1008.97 1008.82 1008.67 1008.48 1008.24 1007.94 1007.60 1007.27 1006.98 1006.76 1006.64 1006.59 1006.62 1006.71 1006.82 1006.95 1007.08
1018.46 1017.77 1017.15 1016.67 1016.33 1016.10 1015.91 1015.72 1015.47 1015.14 1014.74 1014.30 1013.88 1013.51 1013.21 1012.97 1012.76 1012.55 1012.30 1011.98 1011.61 1011.21 1010.82 1010.47 1010.19 1009.98 1009.84 1009.71 1009.57 1009.39 1009.16 1008.87 1008.57 1008.28 1008.03 1007.84 1007.73 1007.68 1007.67 1007.70 1007.73 1007.77 1007.81
1018.84 1018.20 1017.64 1017.21 1016.90 1016.67 1016.49 1016.28 1016.01 1015.68 1015.29 1014.88 1014.50 1014.17 1013.90 1013.67 1013.47 1013.25 1012.99 1012.67 1012.32 1011.94 1011.58 1011.27 1011.03 1010.84 1010.70 1010.56 1010.40 1010.20 1009.95 1009.66 1009.36 1009.08 1008.85 1008.68 1008.57 1008.50 1008.47 1008.45 1008.43 1008.41 1008.38
1019.31 1018.71 1018.20 1017.81 1017.53 1017.30 1017.10 1016.86 1016.58 1016.25 1015.88 1015.51 1015.17 1014.88 1014.65 1014.44 1014.25 1014.02 1013.75 1013.44 1013.08 1012.73 1012.39 1012.10 1011.87 1011.69 1011.53 1011.37 1011.18 1010.94 1010.66 1010.35 1010.04 1009.76 1009.52 1009.35 1009.22 1009.14 1009.07 1009.01 1008.95 1008.87 1008.81
1019.81 1019.26 1018.81 1018.46 1018.19 1017.96 1017.73 1017.47 1017.17 1016.84 1016.49 1016.15 1015.86 1015.62 1015.42 1015.23 1015.04 1014.81 1014.53 1014.21 1013.85 1013.50 1013.17 1012.89 1012.66 1012.47 1012.30 1012.12 1011.90 1011.63 1011.33 1011.00 1010.68 1010.39 1010.14 1009.94 1009.79 1009.66 1009.55 1009.45 1009.33 1009.22 1009.11
1020.29 1019.81 1019.42 1019.12 1018.86 1018.62 1018.37 1018.08 1017.76 1017.42 1017.09 1016.79 1016.53 1016.32 1016.15 1015.98 1015.78 1015.54 1015.25 1014.91 1014.55 1014.19 1013.86 1013.58 1013.35 1013.16 1012.98 1012.78 1012.56 1012.29 1011.98 1011.65 1011.33 1011.02 1010.76 1010.53 1010.33 1010.16 1009.99 1009.83 1009.66 1009.50 1009.36
1020.72 1020.32 1020.00 1019.73 1019.49 1019.24 1018.97 1018.66 1018.32 1017.98 1017.66 1017.38 1017.14 1016.96 1016.79 1016.62 1016.42 1016.16 1015.85 1015.49 1015.12 1014.75 1014.42 1014.14 1013.91 1013.72 1013.54 1013.36 1013.14 1012.90 1012.62 1012.31 1012.00 1011.70 1011.42 1011.16 1010.91 1010.68 1010.45 1010.22 1010.00 1009.79 1009.61
1021.09 1020.78 1020.52 1020.29 1020.06 1019.80 1019.50 1019.17 1018.82 1018.47 1018.16 1017.89 1017.67 1017.49 1017.32 1017.14 1016.91 1016.64 1016.30 1015.93 1015.54 1015.17 1014.84 1014.56 1014.33 1014.15 1013.99 1013.83 1013.66 1013.46 1013.22 1012.96 1012.68 1012.40 1012.11 1011.83 1011.54 1011.26 1010.97 1010.68 1010.41 1010.15 1009.92
1021.42 1021.17 1020.96 1020.76 1020.53 1020.27 1019.96 1019.61 1019.26 1018.91 1018.60 1018.34 1018.12 1017.93 1017.75 1017.54 1017.29 1016.99 1016.64 1016.26 1015.86 1015.49 1015.15 1014.87 1014.65 1014.48 1014.35 1014.22 1014.10 1013.95 1013.78 1013.58 1013.35 1013.09 1012.82 1012.52 1012.20 1011.87 1011.54 1011.21 1010.88 1010.58 1010.31
1021.73 1021.53 1021.35 1021.15 1020.92 1020.65 1020.33 1019.99 1019.64 1019.31 1019.02 1018.76 1018.53 1018.33 1018.12 1017.88 1017.61 1017.29 1016.92 1016.53 1016.14 1015.77 1015.43 1015.16 1014.94 1014.78 1014.66 1014.57 1014.48 1014.39 1014.28 1014.14 1013.95 1013.73 1013.47 1013.18 1012.85 1012.50 1012.14 1011.78 1011.42 1011.09 1010.78
1022.06 1021.88 1021.70 1021.49 1021.25 1020.97 1020.66 1020.33 1020.01 1019.71 1019.43 1019.19 1018.96 1018.73 1018.50 1018.24 1017.94 1017.60 1017.24 1016.85 1016.46 1016.10 1015.76 1015.49 1015.26 1015.10 1014.98 1014.90 1014.84 1014.79 1014.72 1014.63 1014.49 1014.30 1014.06 1013.78 1013.45 1013.10 1012.73 1012.36 1012.00 1011.65 1011.32
1022.43 1022.24 1022.03 1021.79 1021.53 1021.25 1020.97 1020.68 1020.41 1020.15 1019.91 1019.68 1019.45 1019.21 1018.95 1018.67 1018.35 1018.01 1017.65 1017.27 1016.90 1016.54 1016.22 1015.93 1015.69 1015.51 1015.38 1015.29 1015.24 1015.20 1015.16 1015.09 1014.98 1014.81 1014.59 1014.31 1014.00 1013.65 1013.30 1012.94 1012.59 1012.23 1011.88
1022.84 1022.61 1022.35 1022.08 1021.81 1021.54 1021.29 1021.06 1020.86 1020.66 1020.47 1020.27 1020.05 1019.80 1019.52 1019.21 1018.89 1018.54 1018.19 1017.84 1017.49 1017.15 1016.82 1016.53 1016.27 1016.06 1015.90 1015.79 1015.73 1015.68 1015.64 1015.58 1015.47 1015.32 1015.10 1014.83 1014.52 1014.19 1013.85 1013.50 1013.16 1012.81 1012.44
1023.28 1023.00 1022.69 1022.38 1022.10 1021.86 1021.67 1021.51 1021.39 1021.27 1021.13 1020.96 1020.75 1020.49 1020.20 1019.88 1019.54 1019.21 1018.88 1018.55 1018.22 1017.90 1017.59 1017.29 1017.01 1016.78 1016.59 1016.45 1016.36 1016.30 1016.24 1016.17 1016.06 1015.89 1015.66 1015.38 1015.07 1014.74 1014.40 1014.07 1013.73 1013.38 1012.99
1023.73 1023.39 1023.04 1022.71 1022.43 1022.23 1022.10 1022.03 1021.99 1021.95 1021.88 1021.74 1021.54 1021.27 1020.96 1020.63 1020.30 1019.97 1019.67 1019.37 1019.08 1018.79 1018.49 1018.20 1017.91 1017.66 1017.45 1017.29 1017.17 1017.09 1017.02 1016.93 1016.80 1016.61 1016.36 1016.05 1015.71 1015.36 1015.01 1014.66 1014.30 1013.93 1013.52
1024.15 1023.78 1023.40 1023.05 1022.79 1022.64 1022.58 1022.60 1022.65 1022.69 1022.66 1022.55 1022.36 1022.08 1021.76 1021.42 1021.09 1020.79 1020.51 1020.25 1020.01 1019.75 1019.48 1019.21 1018.93 1018.68 1018.47 1018.30 1018.18 1018.09 1018.01 1017.91 1017.75 1017.53 1017.23 1016.88 1016.49 1016.09 1015.69 1015.29 1014.90 1014.48 1014.02
1024.54 1024.15 1023.75 1023.42 1023.19 1023.09 1023.11 1023.20 1023.33 1023.42 1023.44 1023.35 1023.16 1022.88 1022.55 1022.21 1021.89 1021.60 1021.36 1021.15 1020.95 1020.74 1020.51 1020.27 1020.03 1019.80 1019.61 1019.46 1019.36 1019.28 1019.20 1019.08 1018.91 1018.65 1018.30 1017.88 1017.42 1016.94 1016.45 1015.98 1015.51 1015.02 1014.49
1024.87 1024.48 1024.09 1023.78 1023.60 1023.55 1023.64 1023.80 1023.98 1024.13 1024.17 1024.10 1023.91 1023.63 1023.30 1022.96 1022.65 1022.40 1022.19 1022.03 1021.88 1021.72 1021.54 1021.35 1021.15 1020.96 1020.81 1020.70 1020.62 1020.57 1020.51 1020.39 1020.20 1019.90 1019.50 1019.01 1018.46 1017.88 1017.29 1016.71 1016.14 1015.55 1014.93
1025.15 1024.78 1024.42 1024.15 1024.01 1024.02 1024.15 1024.37 1024.59 1024.77 1024.83 1024.77 1024.58 1024.31 1023.98 1023.66 1023.38 1023.16 1022.99 1022.87 1022.77 1022.66 1022.54 1022.39 1022.24 1022.10 1021.99 1021.93 1021.90 1021.87 1021.83 1021.72 1021.51 1021.18 1020.73 1020.16 1019.52 1018.84 1018.14 1017.45 1016.76 1016.06 1015.34
1025.36 1025.04 1024.73 1024.50 1024.41 1024.47 1024.64 1024.89 1025.14 1025.33 1025.41 1025.36 1025.18 1024.92 1024.62 1024.33 1024.08 1023.90 1023.77 1023.70 1023.63 1023.57 1023.48 1023.38 1023.26 1023.16 1023.10 1023.07 1023.07 1023.07 1023.05 1022.94 1022.72 1022.36 1021.86 1021.24 1020.53 1019.76 1018.96 1018.16 1017.36 1016.55 1015.72
Thickness
5753 5757 5760 5763 5764 5765 5767 5767 5768 5769 5769 5769 5770 5770 5770 5771 5771 5772 5772 5773 5773 5774 5774 5772 5772 5771 5771 5770 5769 5770 5770 5770 5770 5770 5770 5770 5770 5770 5770 5770 5770 5770 5769
5753 5756 5758 5761 5762 5763 5764 5765 5765 5766 5766 5766 5767 5767 5768 5768 5768 5769 5769 5770 5770 5770 5769 5769 5768 5768 5767 5767 5766 5766 5766 5766 5766 5766 5766 5766 5766 5766 5766 5767 5767 5766 5766
5752 5755 5756 5758 5759 5760 5761 5762 5762 5763 5763 5763 5763 5764 5764 5765 5765 5765 5766 5766 5766 5766 5765 5765 5765 5764 5764 5763 5763 5763 5763 5763 5763 5762 5762 5762 5762 5763 5763 5763 5763 5763 5763
5751 5752 5754 5755 5756 5757 5758 5759 5759 5759 5759 5760 5760 5760 5761 5761 5762 5762 5762 5763 5762 5762 5761 5761 5761 5760 5760 5759 5759 5759 5759 5759 5758 5758 5758 5758 5758 5759 5759 5759 5759 5759 5759
5748 5750 5751 5752 5753 5754 5755 5755 5756 5756 5756 5756 5756 5757 5757 5758 5758 5758 5758 5759 5758 5758 5757 5757 5756 5756 5756 5756 5756 5755 5755 5755 5754 5754 5754 5754 5754 5755 5755 5755 5755 5755 5755
5746 5747 5748 5749 5750 5751 5751 5752 5752 5752 5752 5752 5752 5753 5753 5754 5754 5754 5754 5755 5754 5754 5753 5752 5752 5752 5752 5752 5752 5751 5751 5750 5749 5749 5750 5750 5751 5751 5752 5752 5752 5752 5752
5743 5744 5745 5746 5747 5747 5747 5748 5748 5747 5747 5748 5748 5748 5749 5749 5750 5750 5750 5751 5750 5749 5748 5748 5748 5748 5748 5747 5747 5747 5746 5746 5745 5745 5745 5746 5746 5747 5747 5748 5747 5748 5748
5740 5741 5741 5742 5743 5743 5744 5743 5744 5743 5743 5743 5743 5744 5744 5745 5745 5745 5746 5746 5746 5746 5745 5744 5743 5743 5743 5743 5743 5743 5742 5742 5741 5741 5741 5741 5742 5742 5742 5743 5743 5743 5743
5738 5738 5738 5738 5739 5739 5739 5739 5739 5739 5739 5739 5739 5739 5739 5739 5740 5740 5741 5741 5741 5741 5740 5740 5739 5739 5739 5739 5739 5738 5738 5737 5736 5736 5737 5737 5737 5738 5738 5738 5738 5738 5738
5734 5734 5734 5734 5734 5734 5735 5735 5735 5735 5735 5735 5734 5734 5734 5734 5735 5735 5735 5736 5736 5736 5735 5735 5735 5734 5734 5734 5734 5733 5732 5732 5732 5732 5732 5732 5733 5733 5733 5733 5733 5734 5735
5730 5730 5730 5730 5730 5731 5731 5730 5730 5730 5730 5730 5730 5729 5729 5729 5729 5729 5730 5730 5731 5731 5731 5730 5730 5730 5729 5729 5728 5728 5727 5726 5727 5727 5727 5728 5728 5728 5728 5729 5730 5732 5733
5724 5726 5726 5727 5727 5727 5728 5726 5726 5725 5725 5725 5725 5725 5725 5725 5725 5725 5725 5725 5725 5725 5725 5725 5724 5724 5724 5723 5723 5722 5722 5722 5722 5722 5722 5723 5723 5724 5723 5724 5725 5727 5727
5722 5723 5723 5723 5723 5723 5723 5722 5721 5721 5721 5721 5720 5720 5720 5720 5720 5720 5720 5719 5719 5719 5719 5719 5719 5718 5718 5718 5717 5717 5716 5716 5716 5716 5717 5718 5718 5719 5719 5719 5720 5721 5720
5720 5720 5721 5720 5720 5719 5719 5718 5717 5717 5716 5716 5716 5716 5716 5715 5715 5715 5714 5714 5714 5713 5713 5713 5713 5712 5712 5712 5712 5711 5710 5710 5710 5710 5711 5712 5713 5713 5714 5714 5714 5715 5715
5717 5718 5718 5718 5717 5716 5716 5715 5714 5713 5713 5712 5712 5711 5711 5711 5710 5710 5709 5709 5709 5708 5708 5707 5707 5707 5706 5706 5706 5705 5705 5704 5704 5705 5705 5706 5707 5707 5707 5708 5709 5709 5710
5715 5715 5715 5714 5713 5713 5712 5711 5710 5709 5709 5708 5707 5707 5707 5706 5706 5706 5705 5704 5704 5703 5703 5702 5701 5701 5700 5700 5699 5699 5698 5698 5698 5699 5699 5699 5700 5700 5701 5702 5702 5703 5703
5713 5713 5713 5712 5710 5709 5708 5707 5706 5706 5705 5704 5703 5703 5702 5702 5701 5701 5700 5699 5699 5698 5698 5698 5697 5696 5695 5694 5692 5692 5692 5692 5692 5692 5692 5692 5692 5693 5694 5695 5696 5696 5697
5711 5710 5709 5709 5707 5706 5705 5703 5702 5701 5701 5699 5699 5698 5698 5698 5697 5697 5696 5694 5694 5694 5693 5693 5691 5689 5688 5686 5686 5686 5685 5685 5685 5685 5686 5685 5685 5685 5686 5687 5688 5689 5690
5708 5707 5706 5705 5703 5702 5701 5700 5698 5697 5696 5695 5694 5694 5693 5693 5693 5692 5690 5689 5689 5688 5688 5687 5685 5683 5681 5680 5680 5679 5679 5679 5678 5679 5678 5678 5678 5678 5678 5679 5680 5681 5682
5706 5704 5703 5701 5700 5698 5697 5695 5694 5693 5691 5690 5689 5688 5688 5688 5687 5687 5685 5684 5684 5683 5681 5680 5679 5677 5675 5674 5675 5673 5672 5672 5672 5671 5671 5671 5671 5671 5671 5672 5673 5674 5674
5702 5700 5699 5697 5696 5695 5693 5690 5688 5686 5685 5684 5684 5683 5683 5682 5682 5681 5680 5679 5678 5676 5675 5674 5673 5670 5668 5668 5666 5664 5664 5665 5665 5665 5664 5664 5664 5664 5665 5665 5665 5666 5667
5698 5697 5696 5695 5693 5692 5690 5688 5686 5683 5681 5680 5679 5678 5677 5677 5677 5676 5675 5673 5672 5670 5669 5668 5666 5663 5661 5660 5658 5656 5653 5655 5657 5658 5657 5658 5657 5657 5658 5658 5658 5659 5660
5695 5694 5694 5692 5691 5689 5687 5684 5681 5678 5676 5674 5673 5672 5672 5672 5672 5671 5669 5668 5666 5665 5663 5662 5660 5658 5655 5653 5652 5650 5646 5642 5644 5648 5649 5650 5650 5650 5650 5650 5651 5652 5652
5693 5692 5691 5689 5687 5685 5683 5680 5677 5673 5670 5668 5667 5666 5667 5667 5666 5665 5664 5662 5661 5659 5658 5656 5655 5653 5650 5647 5646 5645 5643 5640 5637 5637 5640 5641 5642 5642 5642 5643 5644 5645 5645
5691 5689 5687 5685 5683 5681 5679 5677 5673 5669 5666 5664 5662 5662 5661 5661 5661 5660 5659 5657 5655 5654 5653 5651 5649 5647 5645 5642 5640 5638 5636 5634 5632 5630 5630 5633 5634 5635 5635 5636 5637 5637 5638
5687 5685 5684 5681 5679 5677 5674 5672 5669 5666 5662 5659 5657 5656 5655 5655 5655 5655 5654 5652 5651 5649 5648 5646 5645 5642 5640 5637 5635 5633 5631 5629 5627 5625 5623 5624 5625 5627 5628 5629 5630 5630 5631